Weather History for Bloomington, IN

Change the Weather History Date:

Tuesday, September 11, 2012

  Actual Average Record
Temperature  
Mean Temperature 65 °F 68 °F  
Max Temperature 80 °F 80 °F 98 °F (1996)
Min Temperature 49 °F 55 °F 46 °F (1998)
Degree Days  
Heating Degree Days 0 1  
Month to date heating degree days 2 7  
Since 1 July heating degree days 2 14  
Cooling Degree Days 0 4  
Month to date cooling degree days 78 55  
Year to date cooling degree days 1285 872  
Growing Degree Days 15 (Base 50)    
Moisture  
Dew Point 52 °F    
Average Humidity 68    
Maximum Humidity 100    
Minimum Humidity 35    
Precipitation  
Precipitation 0.00 in 0.12 in 0.74 in (2010)
Month to date precipitation 4.22 1.19  
Year to date precipitation 20.52 34.38  
Sea Level Pressure  
Sea Level Pressure 30.19 in    
Wind  
Wind Speed 3 mph (SSE)    
Max Wind Speed 13 mph    
Max Gust Speed 17 mph    
Visibility 10 miles    
Events      
T = Trace of Precipitation, MM = Missing Value Source: NWS Daily Summary

Daily Weather History Graph

Daily Weather History Graph

Search for Another Location

Airport:

Trip Planner

Search our weather history database for the weather conditions in past years. The results will help you decide how hot, cold, wet, or windy it might be!

Date:

Astronomy

Sep. 11, 2012 Rise Set
Actual Time 7:24 AM EDT 8:00 PM EDT
Civil Twilight 6:57 AM EDT 8:27 PM EDT
Nautical Twilight 6:25 AM EDT 8:59 PM EDT
Astronomical Twilight 5:53 AM EDT 9:31 PM EDT
Moon 2:43 AM EDT (9/11) 5:09 PM EDT (9/11)
Length of Visible Light 13h 29m
Length of Day
12h 35m
Waning Crescent, 21% of the Moon is Illuminated
Sep 11
Waning Crescent
Sep 15
New
Sep 22
First Quarter
Sep 29
Full
Oct 8
Last Quarter

Hourly Weather History & Observations

Time (EDT) Temp. Dew Point Humidity Pressure Visibility Wind Dir Wind Speed Gust Speed Precip Events Conditions
12:53 AM 55.9 °F 53.1 °F 90% 30.16 in 10.0 mi Calm Calm - N/A   Clear
1:53 AM 55.0 °F 53.1 °F 93% 30.16 in 10.0 mi Calm Calm - N/A   Clear
2:53 AM 55.0 °F 52.0 °F 89% 30.16 in 10.0 mi Calm Calm - N/A   Clear
3:53 AM 52.0 °F 50.0 °F 93% 30.17 in 10.0 mi Calm Calm - N/A   Clear
4:53 AM 52.0 °F 51.1 °F 97% 30.18 in 10.0 mi Calm Calm - N/A   Clear
5:53 AM 51.1 °F 50.0 °F 96% 30.18 in 10.0 mi Calm Calm - N/A   Clear
6:53 AM 51.1 °F 48.9 °F 92% 30.20 in 10.0 mi Calm Calm - N/A   Clear
7:53 AM 51.1 °F 50.0 °F 96% 30.23 in 10.0 mi Calm Calm - N/A   Clear
8:53 AM 59.0 °F 55.0 °F 87% 30.24 in 10.0 mi Calm Calm - N/A   Clear
9:53 AM 64.9 °F 53.1 °F 65% 30.24 in 10.0 mi South 4.6 mph - N/A   Clear
10:53 AM 70.0 °F 52.0 °F 53% 30.25 in 10.0 mi SSE 8.1 mph - N/A   Clear
11:53 AM 73.0 °F 53.1 °F 49% 30.24 in 10.0 mi South 8.1 mph - N/A   Clear
12:53 PM 75.0 °F 51.1 °F 43% 30.22 in 10.0 mi South 10.4 mph 16.1 mph N/A   Clear
1:53 PM 77.0 °F 53.1 °F 43% 30.21 in 10.0 mi SSE 10.4 mph 16.1 mph N/A   Clear
2:53 PM 77.0 °F 51.1 °F 40% 30.19 in 10.0 mi Calm Calm - N/A   Clear
3:53 PM 79.0 °F 50.0 °F 36% 30.17 in 10.0 mi SSE 11.5 mph - N/A   Clear
4:53 PM 79.0 °F 48.9 °F 35% 30.16 in 10.0 mi SSW 4.6 mph - N/A   Clear
5:53 PM 79.0 °F 48.9 °F 35% 30.15 in 10.0 mi SSE 6.9 mph - N/A   Clear
6:53 PM 78.1 °F 51.1 °F 39% 30.15 in 10.0 mi SSE 4.6 mph - N/A   Clear
7:53 PM 69.1 °F 57.0 °F 65% 30.15 in 10.0 mi Calm Calm - N/A   Clear
8:53 PM 63.0 °F 55.9 °F 78% 30.17 in 10.0 mi Calm Calm - N/A   Clear
9:53 PM 61.0 °F 55.9 °F 83% 30.17 in 10.0 mi Calm Calm - N/A   Clear
10:53 PM 57.9 °F 55.0 °F 90% 30.17 in 10.0 mi Calm Calm - N/A   Clear
11:53 PM 55.9 °F 54.0 °F 93% 30.18 in 10.0 mi Calm Calm - N/A   Clear